SCP
0 0 0 0 0 0 0 0 0 0 0 0 0 0 0 0 0 0 0 0 0 0 0 0 0 0 0 0 0 0 0 0 0 0 0 0 0 0 0 0 0 0 0 0 0 0 0 0 0
0 0 0 0 0 0 0 0 0 0 0 0 0 0 0 0 0 0 0 0 0 0 0 0 0 0 0 0 0 0 0 0 0 0 0 0 0 0 0 0 0 0 0 0 0 0 0 0 0
0 0 0 0 0 0 0 0 0 0 0 0 0 0 0 0 0 0 0 0 0 0 0 0 0 0 0 0 0 0 0 0 0 0 0 0 0 0 0 0 0 0 0 0 0 0 0 0 0
0 0 0 0 0 0 0 0 0 0 0 0 0 0 0 0 0 0 0 0 0 0 0 0 0 0 0 0 0 0 0 0 0 0 0 0 0 0 0 0 0 0 0 0 0 0 0 0 0
0 0 0 0 0 0 0 0 0 0 0 0 0 0 0 0 0 0 0 0 0 0 0 0 0 0 0 0 0 0 0 0 0 0 0 0 0 0 0 0 0 0 0 0 0 0 0 0 0
0 0 0 0 0 0 0 0 0 0 0 0 0 0 0 0 0 0 0 0 0 0 0 0 0 0 0 0 0 0 0 0 0 0 0 0 0 0 0 0 0 0 0 0 0 0 0 0 0
0 0 0 0 0 0 0 0 0 0 0 0 0 0 0 0 0 0 0 0 0 0 0 0 0 0 0 0 0 0 0 0 0 0 0 0 0 0 0 0 0 0 0 0 0 0 0 0 0
0 0 0 0 0 0 0 0 0 0 0 0 0 0 0 0 0 0 0 0 0 0 0 0 0 0 0 0 0 0 0 0 0 0 0 0 0 0 0 0 0 0 0 0 0 0 0 0 0
0 0 0 0 0 0 0 0 0 0 0 0 0 0 0 0 0 0 0 0 0 0 0 0 0 0 0 0 0 0 0 0 0 0 0 0 0 0 0 0 0 0 0 0 0 0 0 0 0
0 0 0 0 0 0 0 0 0 0 0 0 0 0 0 0 0 0 0 0 0 0 0 0 0 0 0 0 0 0 0 0 0 0 0 0 0 0 0 0 0 0 0 0 0 0 0 0 0
0 0 0 0 0 0 0 0 0 0 0 0 0 0 0 0 0 0 0 0 0 0 0 0 0 0 0 0 0 0 0 0 0 0 0 0 0 0 0 0 0 0 0 0 0 0 0 0 0
0 0 0 0 0 0 0 0 0 0 0 0 0 0 0 0 0 0 0 0 0 0 0 0 0 0 0 0 0 0 0 0 0 0 0 0 0 0 0 0 0 0 0 0 0 0 0 0 0
0 0 0 0 0 0 0 0 0 0 0 0 0 0 0 0 0 0 0 0 0 0 0 0 0 0 0 0 0 0 0 0 0 0 0 0 0 0 0 0 0 0 0 0 0 0 0 0 0
0 0 0 0 0 0 0 0 0 0 0 0 0 0 0 0 0 0 0 0 0 0 0 0 0 0 0 0 0 0 0 0 0 0 0 0 0 0 0 0 0 0 0 0 0 0 0 0 0
0 0 0 0 0 0 0 0 0 0 0 0 0 0 0 0 0 0 0 0 0 0 0 0 0 0 0 0 0 0 0 0 0 0 0 0 0 0 0 0 0 0 0 0 0 0 0 0 0
0 0 0 0 0 0 0 0 0 0 0 0 0 0 0 0 0 0 0 0 0 0 0 0 0 0 0 0 0 0 0 0 0 0 0 0 0 0 0 0 0 0 0 0 0 0 0 0 0
0 0 0 0 0 0 0 0 0 0 0 0 0 0 0 0 0 0 0 0 0 0 0 0 0 0 0 0 0 0 0 0 0 0 0 0 0 0 0 0 0 0 0 0 0 0 0 0 0
0 0 0 0 0 0 0 0 0 0 0 0 0 0 0 0 0 0 0 0 0 0 0 0 0 0 0 0 0 0 0 0 0 0 0 0 0 0 0 0 0 0 0 0 0 0 0 0 0
0 0 0 0 0 0 0 0 0 0 0 0 0 0 0 0 0 0 0 0 0 0 0 0 0 0 0 0 0 0 0 0 0 0 0 0 0 0 0 0 0 0 0 0 0 0 0 0 0
0 0 0 0 0 0 0 0 0 0 0 0 0 0 0 0 0 0 0 0 0 0 0 0 0 0 0 0 0 0 0 0 0 0 0 0 0 0 0 0 0 0 0 0 0 0 0 0 0
0 0 0 0 0 0 0 0 0 0 0 0 0 0 0 0 0 0 0 0 0 0 0 0 0 0 0 0 0 0 0 0 0 0 0 0 0 0 0 0 0 0 0 0 0 0 0 0 0
0 0 0 0 0 0 0 0 0 0 0 0 0 0 0 0 0 0 0 0 0 0 0 0 0 0 0 0 0 0 0 0 0 0 0 0 0 0 0 0 0 0 0 0 0 0 0 0 0
0 0 0 0 0 0 0 0 0 0 0 0 0 0 0 0 0 0 0 0 0 0 0 0 0 0 0 0 0 0 0 0 0 0 0 0 0 0 0 0 0 0 0 0 0 0 0 0 0
0 0 0 0 0 0 0 0 0 0 0 0 0 0 0 0 0 0 0 0 0 0 0 0 0 0 0 0 0 0 0 0 0 0 0 0 0 0 0 0 0 0 0 0 0 0 0 0 0
0 0 0 0 0 0 0 0 0 0 0 0 0 0 0 0 0 0 0 0 0 0 0 0 0 0 0 0 0 0 0 0 0 0 0 0 0 0 0 0 0 0 0 0 0 0 0 0 0
0 0 0 0 0 0 0 0 0 0 0 0 0 0 0 0 0 0 0 0 0 0 0 0 0 0 0 0 0 0 0 0 0 0 0 0 0 0 0 0 0 0 0 0 0 0 0 0 0
0 0 0 0 0 0 0 0 0 0 0 0 0 0 0 0 0 0 0 0 0 0 0 0 0 0 0 0 0 0 0 0 0 0 0 0 0 0 0 0 0 0 0 0 0 0 0 0 0
0 0 0 0 0 0 0 0 0 0 0 0 0 0 0 0 0 0 0 0 0 0 0 0 0 0 0 0 0 0 0 0 0 0 0 0 0 0 0 0 0 0 0 0 0 0 0 0 0
0 0 0 0 0 0 0 0 0 0 0 0 0 0 0 0 0 0 0 0 0 0 0 0 0 0 0 0 0 0 0 0 0 0 0 0 0 0 0 0 0 0 0 0 0 0 0 0 0
0 0 0 0 0 0 0 0 0 0 0 0 0 0 0 0 0 0 0 0 0 0 0 0 0 0 0 0 0 0 0 0 0 0 0 0 0 0 0 0 0 0 0 0 0 0 0 0 0
Wind_Speed
17 14 7 3 4 4 2 3 4 4 4 5 5 3 5 9 7 8 5 9 14 15 14 12 12 13 12 12 11 10 10 11 10 11 10 10 10 11 11 11 11 12 12 12 13 13 13 13 12
14 13 6 4 5 4 2 4 4 5 6 5 3 0 3 8 8 8 6 10 14 14 13 12 12 12 12 12 11 10 10 10 10 10 10 10 10 11 11 11 11 11 11 11 12 12 12 11 11
14 10 4 4 5 4 2 4 7 8 6 3 3 2 5 7 8 7 8 11 12 12 11 13 13 12 13 12 11 10 9 9 10 10 10 10 10 10 10 10 10 10 10 10 10 11 10 10 10
7 4 4 5 6 2 3 5 8 7 4 1 3 6 6 5 4 8 10 11 11 11 12 13 12 12 12 12 11 10 10 9 10 9 9 9 9 9 9 9 9 9 9 9 9 9 9 9 8
5 4 5 6 6 1 2 4 6 7 6 4 2 6 7 5 9 12 9 10 10 10 12 13 11 11 11 11 10 10 9 9 9 9 9 9 9 9 8 8 8 8 8 8 8 8 7 7 6
4 3 5 6 6 3 3 3 3 5 5 5 3 5 7 6 8 9 9 9 9 10 11 11 10 10 10 10 9 9 9 9 9 8 8 8 8 8 8 7 7 7 6 6 6 6 6 5 5
3 4 7 8 5 4 4 3 4 4 5 4 2 5 8 7 7 8 8 8 9 10 10 10 9 9 9 9 9 8 8 8 8 8 7 7 7 7 7 6 6 6 6 6 5 5 5 4 3
3 4 7 8 7 5 4 4 2 2 2 3 1 2 7 9 8 8 7 7 8 9 9 9 9 9 8 7 8 8 8 8 8 8 7 7 6 6 6 6 6 6 6 5 5 4 4 4 3
2 4 7 8 6 3 4 4 2 2 2 3 4 6 9 13 10 8 6 6 6 7 7 8 8 8 8 8 9 8 8 8 8 7 8 7 4 5 5 6 7 6 6 5 5 4 4 4 4
4 6 10 6 4 2 3 4 5 4 4 4 6 7 10 11 9 9 8 8 8 8 7 7 8 7 7 7 7 6 6 6 6 5 6 5 4 4 5 8 9 8 7 6 6 6 5 4 3
5 7 7 7 5 5 2 3 2 4 6 7 9 12 11 10 9 9 9 9 9 9 8 7 7 7 6 5 5 4 4 5 6 7 7 5 4 3 3 3 4 5 6 4 5 5 4 4 4
7 8 8 6 4 5 4 3 4 6 3 2 5 11 12 11 11 10 10 9 8 8 9 8 7 7 7 6 5 4 4 4 4 5 7 5 3 3 4 3 4 4 4 4 4 4 5 5 4
11 8 8 5 4 5 5 6 6 7 3 1 3 8 10 10 10 9 8 7 7 8 9 9 8 8 7 6 4 5 4 4 5 5 5 5 4 4 4 3 4 4 4 4 4 4 5 5 4
6 8 8 6 6 6 7 8 8 8 5 3 4 7 8 9 10 9 9 9 9 9 9 9 9 8 7 6 5 4 5 5 5 5 6 6 4 4 4 4 4 4 4 4 4 5 4 4 4
6 7 9 9 8 6 6 11 13 10 7 7 7 7 8 8 9 9 10 9 9 9 9 9 9 9 8 8 7 5 5 5 5 5 6 7 6 5 5 4 4 4 4 4 4 4 3 3 4
6 7 9 9 11 8 7 12 10 10 10 10 8 8 8 9 9 9 9 9 8 8 9 9 8 9 9 8 7 5 5 5 5 5 5 7 7 6 5 4 4 5 4 4 4 4 3 4 4
7 10 12 9 11 9 11 10 7 7 9 10 9 8 8 8 9 9 9 9 8 8 9 9 9 9 9 8 6 6 5 5 5 5 5 6 8 8 6 5 4 5 4 4 4 4 4 4 4
10 10 10 11 9 10 12 11 8 6 7 8 8 9 9 9 9 8 8 8 8 8 8 8 9 9 8 7 6 5 6 6 5 6 6 7 7 8 7 5 6 6 4 4 4 5 4 4 4
10 10 11 9 6 8 12 14 12 10 9 9 9 8 8 8 8 8 8 7 7 7 8 8 8 9 8 7 7 7 7 6 6 6 7 8 8 8 8 6 6 6 6 6 6 5 5 5 3
14 14 12 7 3 4 8 13 12 12 12 11 11 10 9 8 8 8 7 7 8 8 7 8 8 8 8 7 7 6 6 5 6 5 7 8 8 9 8 9 7 7 6 7 7 6 4 4 4
15 16 14 9 4 3 5 11 13 13 14 13 12 10 9 10 9 7 7 6 6 7 8 7 8 8 8 7 5 5 4 4 5 6 6 8 8 8 8 9 7 7 7 7 7 7 7 6 5
14 12 11 9 7 6 7 8 9 11 13 15 13 11 10 9 8 6 5 5 6 6 5 6 6 7 7 7 6 7 7 8 8 6 6 6 8 8 8 8 8 7 7 7 7 7 6 6 6
7 4 7 8 7 8 8 9 7 7 12 12 12 12 10 9 8 6 4 4 4 4 4 4 5 6 6 6 7 8 7 7 5 4 6 7 7 8 8 8 7 8 7 7 7 7 7 6 6
4 2 4 5 5 12 13 12 9 9 12 10 10 10 9 7 6 6 4 3 3 3 3 3 3 4 5 6 7 8 8 7 6 5 5 5 5 6 8 8 8 7 7 7 7 7 7 7 7
7 5 5 7 9 10 9 11 10 7 8 8 8 6 6 7 6 5 4 3 3 2 2 2 3 4 3 4 6 7 7 8 8 6 6 5 5 5 7 8 8 7 7 7 6 6 7 7 7
11 11 8 7 6 4 7 12 8 4 4 4 4 4 4 4 3 4 4 3 2 2 2 2 3 3 3 3 4 4 5 5 5 6 5 5 5 5 5 7 7 7 7 7 6 6 7 6 7
9 11 8 5 4 5 7 7 6 3 3 4 4 4 5 5 4 3 3 3 3 3 2 2 2 2 2 2 2 3 3 4 4 4 4 3 3 3 4 5 6 6 6 6 6 5 6 6 6
9 6 4 7 6 8 7 9 7 6 7 7 6 5 4 3 3 3 2 2 2 2 1 1 1 2 2 1 1 1 2 2 2 2 2 2 2 2 2 3 4 4 5 5 5 4 4 5 5
10 10 8 6 5 5 5 6 3 5 6 7 7 5 4 3 3 3 2 1 2 1 1 1 0 0 0 1 1 1 2 2 2 2 2 2 2 2 2 3 3 3 3 3 4 4 4 5 4
9 11 12 9 7 6 6 7 3 3 1 1 3 3 3 3 3 2 2 2 2 1 0 1 1 0 1 1 1 1 1 1 1 1 1 1 1 1 1 2 2 2 2 2 3 4 4 5 5
Wind_Direction
311 303 290 264 246 232 202 114 95 93 87 65 50 14 35 45 43 99 133 122 119 124 133 141 138 137 135 132 130 128 127 124 121 117 113 111 111 108 104 100 96 94 92 91 90 88 84 82 80
304 300 291 246 250 238 166 135 128 99 88 97 101 66 82 80 84 108 124 119 123 128 139 142 138 138 138 136 135 134 133 131 126 122 117 115 112 109 106 104 101 98 97 95 94 92 87 85 83
295 280 267 257 255 255 144 129 115 98 108 142 134 39 47 79 105 119 127 129 125 130 135 133 141 142 143 142 141 139 137 133 130 128 123 119 113 109 108 108 104 102 102 99 98 96 93 88 85
302 281 243 254 261 274 122 124 114 122 132 176 144 111 80 51 84 115 130 133 129 131 128 137 144 146 147 148 147 146 144 139 135 134 131 125 121 115 113 114 111 106 104 104 103 100 98 94 88
276 256 254 251 255 254 90 103 129 148 155 170 192 111 98 86 98 119 137 135 132 133 129 143 146 148 149 151 152 152 150 145 142 141 138 134 130 126 123 121 120 114 109 110 109 107 106 100 92
281 262 249 243 237 204 146 132 176 168 148 146 168 121 104 124 124 136 140 138 136 132 131 142 145 149 152 154 156 157 156 153 151 148 144 142 141 138 135 134 132 128 125 122 118 115 111 110 104
282 274 258 257 247 208 161 161 209 193 157 147 160 121 120 137 132 141 141 142 136 133 136 145 155 156 155 157 157 159 158 157 157 154 149 144 144 143 140 142 145 144 141 136 131 129 123 124 121
296 282 258 251 243 222 162 170 225 250 132 101 26 121 136 140 137 140 140 139 136 138 146 154 162 164 164 163 163 162 162 162 161 157 152 150 150 151 155 157 161 162 159 152 150 149 150 150 154
279 255 248 244 242 220 163 177 174 353 102 102 69 48 105 127 137 138 141 143 142 148 155 161 164 167 167 169 168 164 166 167 163 161 163 163 173 174 174 179 170 170 169 169 175 178 181 178 190
211 237 244 263 289 285 181 191 165 182 188 157 125 100 114 132 150 159 166 168 166 169 169 169 169 170 169 171 159 172 176 173 181 176 174 189 197 186 176 170 172 176 177 183 194 201 206 211 210
215 236 258 278 322 329 278 233 185 209 210 187 167 151 146 154 167 176 180 181 178 176 173 176 175 173 172 162 163 175 176 175 190 186 181 192 193 175 167 153 166 179 189 197 201 205 218 220 218
241 245 254 266 307 308 291 273 245 239 250 67 128 146 155 169 181 188 188 185 178 180 179 181 179 177 176 171 176 177 175 175 184 184 182 186 185 183 178 176 175 182 190 200 199 200 214 219 222
239 246 250 248 253 270 284 273 265 254 254 56 98 142 169 181 189 192 191 186 183 187 184 182 182 182 179 180 185 183 184 182 184 184 186 188 186 189 190 192 187 189 191 193 204 210 214 217 225
255 248 248 238 234 242 249 261 258 251 237 214 191 182 193 194 193 190 190 192 192 190 186 183 185 187 183 184 188 190 190 188 190 185 188 195 196 191 193 197 195 199 198 197 201 213 218 217 222
269 263 250 233 226 228 232 247 239 243 237 225 220 208 207 208 198 197 194 193 192 187 185 185 187 188 188 191 194 195 194 190 192 192 192 194 200 200 195 197 198 201 202 202 204 220 222 223 226
232 237 239 222 210 211 215 244 234 224 223 226 226 221 211 212 209 203 198 195 192 185 185 187 184 188 193 194 195 195 194 194 195 195 196 198 203 205 202 201 203 199 197 196 201 210 216 226 230
212 223 228 225 205 197 209 243 240 228 219 224 225 228 223 214 211 209 201 195 191 187 183 186 185 188 194 196 195 197 196 199 197 198 200 201 203 206 206 205 204 198 199 200 204 208 209 225 234
207 221 228 223 200 208 219 233 239 235 234 232 231 230 228 224 216 210 205 194 187 184 182 184 186 189 191 193 195 199 203 204 203 203 204 203 204 204 207 208 209 203 202 203 203 209 214 221 230
251 243 240 239 217 216 232 240 240 236 235 236 239 239 235 234 226 211 202 192 182 182 183 186 189 190 187 190 193 198 205 205 207 210 208 205 205 204 206 210 211 210 209 208 207 206 216 220 212
249 256 256 258 238 240 251 252 247 242 240 235 235 236 236 240 237 220 200 190 183 184 187 190 193 192 193 195 196 199 200 205 207 209 211 209 207 205 206 209 211 211 212 213 213 208 210 215 197
235 239 245 251 262 253 281 269 244 242 240 240 238 237 237 237 240 227 200 190 179 187 190 193 196 196 198 197 190 190 198 209 208 210 211 212 209 207 208 209 211 211 210 217 216 210 210 220 212
236 233 243 250 251 242 219 264 240 231 234 231 229 230 232 236 238 233 203 186 186 188 186 191 194 196 198 194 193 193 199 207 211 207 206 206 205 207 210 212 213 215 214 218 219 215 215 216 225
238 232 236 240 249 258 237 257 254 230 236 230 222 219 221 224 223 219 206 192 181 176 183 194 199 200 198 198 198 199 211 217 214 203 200 201 201 203 209 213 215 218 219 219 216 214 215 217 223
223 222 251 242 237 244 225 235 257 215 228 227 224 216 215 215 206 203 196 175 172 166 173 191 202 208 204 204 204 204 211 215 214 210 205 201 200 202 207 213 216 218 219 221 220 219 217 219 221
202 182 204 209 217 237 201 223 248 219 221 216 213 207 200 199 195 187 184 180 171 167 177 190 202 214 209 207 209 211 212 215 216 215 211 204 203 206 208 209 214 218 220 220 217 219 223 221 222
208 204 206 211 218 235 202 226 244 206 207 206 199 192 182 186 180 175 169 167 169 178 189 191 195 210 214 214 216 217 217 219 222 221 217 213 211 210 205 206 211 216 219 219 217 219 222 224 227
207 218 229 259 278 265 240 244 251 225 211 214 207 203 202 191 183 173 163 168 183 191 190 190 194 203 216 224 221 219 223 224 225 222 218 218 215 209 205 202 207 213 216 217 216 221 222 223 227
219 209 205 215 219 238 241 235 233 210 212 214 209 209 207 187 162 149 149 162 167 156 162 175 197 208 213 220 218 216 222 221 225 220 214 209 210 199 190 199 207 211 215 215 216 220 221 224 229
206 216 219 218 224 225 244 246 234 215 205 205 207 195 182 178 171 160 151 141 117 99 103 152 189 218 205 207 219 214 225 218 209 208 215 213 205 195 193 194 197 203 208 208 210 218 217 224 231
222 220 215 217 226 229 252 257 296 309 276 192 192 190 186 176 162 150 145 137 125 118 72 7 350 326 290 248 217 205 215 210 201 206 216 206 200 195 189 182 185 195 204 210 217 224 225 227 230